SCO15CD EGPH-EGAA

Flight info

Callsign SCO15CD
Flight time 0h 38m
Altitude 18000
Route TLA DCT TRN P600 BLACA DCT BELZU
Aircraft AT76/M-SDFGIRY/S

Departure

Time 2026-05-06 23:10
Airport Edinburgh Airport (EGPH)

Arrival

Time 2026-05-06 23:48
Airport Belfast International Airport (EGAA)
Time Latitude Longitude Altitude Speed Heading
2026-05-06 22:25 55.94572 -3.36621 113 ft 0 kts 89°
2026-05-06 22:53 55.94572 -3.36638 113 ft 4 kts 89°
2026-05-06 22:53 55.94571 -3.36686 113 ft 4 kts 89°
2026-05-06 22:53 55.94571 -3.36734 113 ft 4 kts 89°
2026-05-06 22:54 55.94571 -3.36744 113 ft 0 kts 89°
2026-05-06 22:57 55.94572 -3.36741 113 ft 0 kts 68°
2026-05-06 22:58 55.94578 -3.36737 113 ft 0 kts 29°
2026-05-06 22:58 55.94604 -3.36736 113 ft 7 kts
2026-05-06 22:58 55.94645 -3.36734 113 ft 0 kts 358°
2026-05-06 22:59 55.94649 -3.36734 113 ft 4 kts 358°
2026-05-06 23:00 55.94702 -3.36735 113 ft 0 kts 359°
2026-05-06 23:00 55.94704 -3.36736 113 ft 0 kts 359°
2026-05-06 23:00 55.94712 -3.36736 111 ft 5 kts 359°
2026-05-06 23:01 55.94746 -3.36740 113 ft 3 kts 351°
2026-05-06 23:01 55.94776 -3.36776 112 ft 9 kts 322°
2026-05-06 23:01 55.94791 -3.36783 112 ft 0 kts 358°
2026-05-06 23:02 55.94794 -3.36782 112 ft 3 kts
2026-05-06 23:02 55.94820 -3.36778 113 ft 0 kts
2026-05-06 23:02 55.94856 -3.36778 113 ft 9 kts 359°
2026-05-06 23:03 55.94923 -3.36828 112 ft 12 kts 342°
2026-05-06 23:03 55.94975 -3.36752 112 ft 11 kts 59°
2026-05-06 23:03 55.95018 -3.36623 111 ft 14 kts 59°
2026-05-06 23:03 55.95073 -3.36460 113 ft 16 kts 59°
2026-05-06 23:04 55.95131 -3.36291 112 ft 16 kts 59°
2026-05-06 23:04 55.95190 -3.36114 112 ft 17 kts 59°
2026-05-06 23:04 55.95250 -3.35937 111 ft 17 kts 59°
2026-05-06 23:04 55.95309 -3.35763 112 ft 16 kts 58°
2026-05-06 23:05 55.95360 -3.35611 113 ft 11 kts 69°
2026-05-06 23:05 55.95362 -3.35559 113 ft 0 kts 88°
2026-05-06 23:06 55.95362 -3.35541 113 ft 5 kts 88°
2026-05-06 23:06 55.95365 -3.35451 113 ft 8 kts 75°
2026-05-06 23:06 55.95388 -3.35379 111 ft 5 kts 56°
2026-05-06 23:06 55.95433 -3.35368 113 ft 8 kts 329°
2026-05-06 23:07 55.95467 -3.35405 112 ft 3 kts 329°
2026-05-06 23:07 55.95490 -3.35430 111 ft 8 kts 329°
2026-05-06 23:07 55.95507 -3.35448 111 ft 0 kts 328°
2026-05-06 23:07 55.95516 -3.35458 112 ft 7 kts 328°
2026-05-06 23:08 55.95572 -3.35542 110 ft 8 kts 277°
2026-05-06 23:08 55.95559 -3.35602 108 ft 0 kts 239°
2026-05-06 23:09 55.95516 -3.35727 110 ft 40 kts 239°
2026-05-06 23:09 55.95260 -3.36478 108 ft 101 kts 239°
2026-05-06 23:10 55.94859 -3.37686 499 ft 113 kts 234°
2026-05-06 23:10 55.94407 -3.38947 889 ft 138 kts 230°
2026-05-06 23:10 55.93676 -3.40286 1126 ft 166 kts 225°
2026-05-06 23:10 55.93022 -3.42055 1696 ft 170 kts 235°
2026-05-06 23:11 55.92457 -3.43876 2475 ft 165 kts 237°
2026-05-06 23:11 55.91910 -3.45678 3186 ft 165 kts 238°
2026-05-06 23:11 55.91346 -3.47480 3849 ft 167 kts 238°
2026-05-06 23:11 55.90768 -3.49259 4523 ft 168 kts 238°
2026-05-06 23:12 55.90179 -3.51071 5203 ft 170 kts 239°
2026-05-06 23:12 55.89596 -3.52917 5863 ft 172 kts 239°
2026-05-06 23:12 55.88986 -3.54769 6522 ft 174 kts 232°
2026-05-06 23:12 55.87966 -3.55831 7022 ft 177 kts 184°
2026-05-06 23:13 55.86741 -3.55466 7506 ft 181 kts 169°
2026-05-06 23:13 55.85513 -3.54828 8039 ft 185 kts 165°
2026-05-06 23:13 55.84286 -3.54097 8565 ft 188 kts 165°
2026-05-06 23:13 55.83042 -3.53346 9083 ft 190 kts 165°
2026-05-06 23:14 55.81782 -3.52591 9623 ft 192 kts 166°
2026-05-06 23:14 55.80517 -3.51877 10127 ft 194 kts 167°
2026-05-06 23:14 55.79201 -3.51150 10615 ft 196 kts 167°
2026-05-06 23:14 55.77908 -3.50437 11086 ft 198 kts 167°
2026-05-06 23:15 55.76585 -3.49713 11558 ft 200 kts 167°
2026-05-06 23:15 55.75248 -3.48982 12029 ft 202 kts 167°
2026-05-06 23:15 55.73895 -3.48243 12485 ft 204 kts 167°
2026-05-06 23:15 55.72526 -3.47497 12927 ft 206 kts 167°
2026-05-06 23:16 55.71149 -3.46744 13375 ft 208 kts 167°
2026-05-06 23:16 55.69770 -3.45987 13836 ft 210 kts 168°
2026-05-06 23:16 55.68367 -3.45231 14228 ft 211 kts 168°
2026-05-06 23:16 55.66955 -3.44464 14630 ft 213 kts 168°
2026-05-06 23:17 55.65524 -3.43980 14961 ft 207 kts 192°
2026-05-06 23:17 55.64309 -3.45081 15306 ft 196 kts 234°
2026-05-06 23:17 55.63603 -3.47128 15695 ft 195 kts 244°
2026-05-06 23:17 55.62974 -3.49233 16092 ft 196 kts 244°
2026-05-06 23:18 55.62322 -3.51392 16425 ft 197 kts 244°
2026-05-06 23:18 55.61672 -3.53484 16709 ft 198 kts 243°
2026-05-06 23:18 55.60977 -3.55588 16990 ft 198 kts 242°
2026-05-06 23:18 55.60262 -3.57676 17262 ft 199 kts 241°
2026-05-06 23:19 55.59538 -3.59773 17527 ft 200 kts 241°
2026-05-06 23:19 55.58816 -3.61877 17789 ft 200 kts 242°
2026-05-06 23:19 55.58245 -3.64129 17905 ft 203 kts 259°
2026-05-06 23:19 55.57875 -3.66496 17991 ft 207 kts 233°
2026-05-06 23:20 55.56651 -3.67851 18237 ft 205 kts 209°
2026-05-06 23:20 55.55404 -3.69097 18208 ft 212 kts 229°
2026-05-06 23:20 55.54585 -3.71301 18089 ft 221 kts 244°
2026-05-06 23:20 55.53835 -3.73738 18033 ft 230 kts 243°
2026-05-06 23:21 55.53005 -3.76208 18012 ft 237 kts 239°
2026-05-06 23:21 55.52048 -3.78611 17995 ft 242 kts 235°
2026-05-06 23:21 55.50991 -3.80957 17992 ft 245 kts 233°
2026-05-06 23:21 55.49901 -3.83291 17990 ft 247 kts 233°
2026-05-06 23:22 55.48816 -3.85662 17989 ft 249 kts 234°
2026-05-06 23:22 55.47746 -3.88034 17991 ft 251 kts 234°
2026-05-06 23:22 55.46653 -3.90449 17984 ft 252 kts 234°
2026-05-06 23:22 55.45556 -3.92872 17969 ft 253 kts 234°
2026-05-06 23:23 55.44456 -3.95296 17986 ft 254 kts 234°
2026-05-06 23:23 55.43352 -3.97729 17984 ft 255 kts 234°
2026-05-06 23:23 55.42243 -4.00168 17975 ft 255 kts 234°
2026-05-06 23:23 55.41131 -4.02612 17980 ft 255 kts 233°
2026-05-06 23:24 55.40030 -4.05032 17981 ft 256 kts 233°
2026-05-06 23:24 55.38916 -4.07478 17983 ft 256 kts 233°
2026-05-06 23:24 55.37798 -4.09925 17980 ft 256 kts 234°
2026-05-06 23:24 55.37056 -4.11551 17983 ft 256 kts 233°
2026-05-06 23:25 55.35572 -4.14797 17986 ft 257 kts 233°
2026-05-06 23:25 55.34815 -4.16455 17983 ft 257 kts 233°
2026-05-06 23:25 55.33706 -4.18877 17977 ft 257 kts 233°
2026-05-06 23:25 55.32585 -4.21322 17977 ft 257 kts 233°
2026-05-06 23:26 55.31461 -4.23769 17981 ft 257 kts 233°
2026-05-06 23:26 55.30338 -4.26216 17977 ft 258 kts 233°
2026-05-06 23:26 55.29215 -4.28659 17975 ft 257 kts 233°
2026-05-06 23:26 55.28090 -4.31098 17978 ft 257 kts 233°
2026-05-06 23:27 55.26966 -4.33543 17989 ft 257 kts 233°
2026-05-06 23:27 55.25840 -4.35981 17984 ft 258 kts 233°
2026-05-06 23:27 55.24713 -4.38424 17979 ft 258 kts 233°
2026-05-06 23:27 55.23586 -4.40864 17982 ft 257 kts 234°
2026-05-06 23:28 55.22460 -4.43297 17980 ft 257 kts 234°
2026-05-06 23:28 55.21346 -4.45701 17977 ft 257 kts 233°
2026-05-06 23:28 55.20220 -4.48131 17976 ft 257 kts 234°
2026-05-06 23:28 55.19096 -4.50552 17973 ft 256 kts 233°
2026-05-06 23:29 55.17972 -4.52972 17967 ft 256 kts 233°
2026-05-06 23:29 55.16846 -4.55398 17976 ft 257 kts 233°
2026-05-06 23:29 55.15715 -4.57829 17977 ft 257 kts 233°
2026-05-06 23:29 55.14586 -4.60255 17978 ft 257 kts 233°
2026-05-06 23:30 55.13455 -4.62682 17976 ft 257 kts 233°
2026-05-06 23:30 55.12322 -4.65108 17977 ft 257 kts 233°
2026-05-06 23:30 55.11192 -4.67529 17976 ft 258 kts 233°
2026-05-06 23:30 55.10039 -4.69989 17980 ft 266 kts 233°
2026-05-06 23:31 55.08853 -4.72529 17982 ft 274 kts 233°
2026-05-06 23:31 55.07633 -4.75132 17977 ft 279 kts 233°
2026-05-06 23:31 55.06393 -4.77776 17976 ft 284 kts 233°
2026-05-06 23:31 55.05133 -4.80457 17976 ft 287 kts 233°
2026-05-06 23:32 55.03860 -4.83167 17974 ft 290 kts 233°
2026-05-06 23:32 55.02577 -4.85896 17972 ft 292 kts 233°
2026-05-06 23:32 55.01284 -4.88637 17974 ft 294 kts 233°
2026-05-06 23:32 54.99985 -4.91391 17975 ft 295 kts 233°
2026-05-06 23:33 54.98680 -4.94153 17972 ft 296 kts 233°
2026-05-06 23:33 54.97388 -4.96884 17972 ft 296 kts 233°
2026-05-06 23:33 54.96082 -4.99648 17972 ft 296 kts 233°
2026-05-06 23:33 54.94766 -5.02423 17969 ft 297 kts 232°
2026-05-06 23:34 54.93450 -5.05198 17971 ft 297 kts 233°
2026-05-06 23:34 54.92136 -5.07969 17972 ft 297 kts 233°
2026-05-06 23:34 54.90820 -5.10743 17972 ft 297 kts 233°
2026-05-06 23:34 54.89502 -5.13509 17964 ft 297 kts 232°
2026-05-06 23:35 54.88227 -5.16323 17968 ft 294 kts 240°
2026-05-06 23:35 54.87419 -5.19571 17970 ft 294 kts 252°
2026-05-06 23:35 54.86818 -5.22970 17963 ft 295 kts 254°
2026-05-06 23:35 54.86224 -5.26379 17964 ft 294 kts 253°
2026-05-06 23:36 54.85625 -5.29545 17318 ft 269 kts 252°
2026-05-06 23:36 54.85050 -5.32564 16449 ft 256 kts 252°
2026-05-06 23:36 54.84523 -5.35325 16035 ft 233 kts 252°
2026-05-06 23:36 54.84075 -5.37698 15516 ft 222 kts 252°
2026-05-06 23:37 54.83603 -5.40189 14986 ft 213 kts 252°
2026-05-06 23:37 54.83145 -5.42573 14486 ft 205 kts 252°
2026-05-06 23:37 54.82703 -5.44868 14010 ft 198 kts 251°
2026-05-06 23:37 54.82302 -5.46938 13547 ft 193 kts 251°
2026-05-06 23:38 54.81880 -5.49119 13058 ft 188 kts 251°
2026-05-06 23:38 54.81468 -5.51246 12584 ft 184 kts 251°
2026-05-06 23:38 54.81063 -5.53335 12117 ft 181 kts 251°
2026-05-06 23:38 54.80665 -5.55383 11671 ft 178 kts 251°
2026-05-06 23:39 54.80278 -5.57375 11248 ft 176 kts 251°
2026-05-06 23:39 54.79867 -5.59481 10808 ft 194 kts 251°
2026-05-06 23:39 54.79416 -5.61803 10330 ft 212 kts 251°
2026-05-06 23:39 54.78929 -5.64311 9808 ft 227 kts 251°
2026-05-06 23:40 54.78436 -5.66843 9225 ft 215 kts 251°
2026-05-06 23:40 54.77969 -5.69230 8686 ft 203 kts 251°
2026-05-06 23:40 54.77530 -5.71472 8195 ft 194 kts 250°
2026-05-06 23:40 54.77103 -5.73650 7719 ft 187 kts 250°
2026-05-06 23:41 54.76690 -5.75751 7271 ft 182 kts 250°
2026-05-06 23:41 54.76288 -5.77800 6845 ft 177 kts 249°
2026-05-06 23:41 54.75896 -5.79795 6438 ft 173 kts 249°
2026-05-06 23:41 54.75508 -5.81753 6007 ft 170 kts 249°
2026-05-06 23:42 54.75127 -5.83680 5599 ft 168 kts 249°
2026-05-06 23:42 54.74754 -5.85578 5198 ft 165 kts 249°
2026-05-06 23:42 54.74382 -5.87450 4808 ft 164 kts 249°
2026-05-06 23:42 54.74013 -5.89316 4410 ft 164 kts 249°
2026-05-06 23:43 54.73646 -5.91172 4025 ft 162 kts 248°
2026-05-06 23:43 54.73281 -5.93016 3662 ft 161 kts 249°
2026-05-06 23:43 54.72921 -5.94852 3414 ft 158 kts 248°
2026-05-06 23:43 54.72526 -5.96634 3192 ft 162 kts 242°
2026-05-06 23:44 54.72030 -5.98320 2928 ft 155 kts 239°
2026-05-06 23:44 54.71536 -5.99947 2621 ft 153 kts 240°
2026-05-06 23:44 54.71071 -6.01623 2344 ft 157 kts 242°
2026-05-06 23:44 54.70626 -6.03376 2068 ft 161 kts 242°
2026-05-06 23:45 54.70168 -6.05164 1853 ft 165 kts 241°
2026-05-06 23:45 54.69686 -6.06947 1632 ft 154 kts 241°
2026-05-06 23:45 54.69253 -6.08559 1311 ft 151 kts 240°
2026-05-06 23:45 54.68808 -6.10219 1266 ft 147 kts 243°
2026-05-06 23:46 54.68396 -6.11824 1317 ft 147 kts 242°
2026-05-06 23:46 54.67962 -6.13409 1207 ft 139 kts 242°
2026-05-06 23:46 54.67577 -6.14789 1026 ft 117 kts 242°
2026-05-06 23:46 54.67255 -6.16000 817 ft 111 kts 242°
2026-05-06 23:47 54.66922 -6.17216 652 ft 112 kts 242°
2026-05-06 23:47 54.66589 -6.18467 485 ft 117 kts 242°
2026-05-06 23:47 54.66244 -6.19749 305 ft 116 kts 242°
2026-05-06 23:47 54.65929 -6.20907 270 ft 99 kts 246°
2026-05-06 23:48 54.65716 -6.21703 268 ft 55 kts 245°
2026-05-06 23:48 54.65546 -6.22334 268 ft 30 kts 246°
2026-05-06 23:48 54.65475 -6.22616 268 ft 20 kts 264°
2026-05-06 23:48 54.65572 -6.22738 268 ft 18 kts 342°
2026-05-06 23:49 54.65687 -6.22797 268 ft 15 kts 356°
2026-05-06 23:49 54.65743 -6.22683 268 ft 13 kts 87°
2026-05-06 23:49 54.65749 -6.22543 268 ft 11 kts 83°
2026-05-06 23:49 54.65758 -6.22420 268 ft 10 kts 83°
2026-05-06 23:50 54.65766 -6.22307 268 ft 9 kts 83°
2026-05-06 23:50 54.65793 -6.22098 268 ft 9 kts 67°
2026-05-06 23:50 54.65820 -6.21998 268 ft 9 kts 64°
2026-05-06 23:51 54.65848 -6.21896 268 ft 10 kts 65°
2026-05-06 23:51 54.65875 -6.21791 268 ft 10 kts 65°
2026-05-06 23:51 54.65905 -6.21683 268 ft 10 kts 64°
2026-05-06 23:51 54.65934 -6.21573 268 ft 10 kts 65°
2026-05-06 23:52 54.65964 -6.21463 268 ft 10 kts 65°
2026-05-06 23:52 54.65994 -6.21349 268 ft 11 kts 65°
2026-05-06 23:52 54.66027 -6.21232 268 ft 11 kts 54°
2026-05-06 23:52 54.66098 -6.21238 268 ft 12 kts 334°
2026-05-06 23:53 54.66135 -6.21246 268 ft 6 kts 34°
2026-05-06 23:53 54.66153 -6.21191 268 ft 1 kts 65°
2026-05-06 23:53 54.66156 -6.21180 268 ft 1 kts 64°
2026-05-06 23:53 54.66158 -6.21175 268 ft 0 kts 65°